GPS BIII-10 (PRN 13)

Last updated on Thu Aug 20 2026 00:03:18 GMT+0000 (Coordinated Universal Time)

1 68791U 26087A 26216.52106289 .00000096 00000+0 00000+0 0 9997 2 68791 54.9608 205.8772 0020692 104.6324 74.5768 2.00574239 1803
UTC large
Height (km)
Speed (km/s)
/
Latitude / Longitude
Inclination (degrees)
Orbital Period (minutes)
Azimuth
Elevation
Range (km)
Doppler Factor

Next 0 passes for location: London (51.5072 / 0.1276)

No passes found over London.
GPS BIII-10 (PRN 13)